Cleveland Burke, OH

4:44 PM EDT on August 19, 2017 (GMT -0400)
Burke Lakefront

Weather History for KBKL - January, 1999

Change the Weather History Date:

Monday, January 11, 1999

  Actual Average Record
Temperature  
Mean Temperature 14 °F -  
Max Temperature 30 °F 32 °F 59 °F (2017)
Min Temperature 1 °F 21 °F 1 °F (1999)
Degree Days  
Heating Degree Days 50    
Moisture  
Dew Point 6 °F    
Average Humidity 79    
Maximum Humidity 88    
Minimum Humidity 70    
Precipitation  
Precipitation 0.00 in - - ()
Sea Level Pressure  
Sea Level Pressure 30.05 in    
Wind  
Wind Speed 18 mph (SSW)    
Max Wind Speed 24 mph    
Max Gust Speed 30 mph    
Visibility 5 miles    
Events Snow    
Averages and records for this station are not official NWS values.
T = Trace of Precipitation, MM = Missing Value Source: NWS Daily Summary

Daily Weather History Graph

Daily Weather History Graph

Search for Another Location

Airport or City:

Trip Planner

Search our weather history database for the weather conditions in past years. The results will help you decide how hot, cold, wet, or windy it might be!

Date:

Astronomy

Jan. 11, 1999 Rise Set
Actual Time 7:52 AM EST 5:17 PM EST
Civil Twilight 7:21 AM EST 5:47 PM EST
Nautical Twilight 6:47 AM EST 6:22 PM EST
Astronomical Twilight 6:13 AM EST 6:55 PM EST
Moon 2:13 AM EST (1/11) 1:16 PM EST (1/11)
Length of Visible Light 10h 26m
Length of Day
9h 24m
Waning Crescent, 31% of the Moon is Illuminated
Jan 11
Waning Crescent
Jan 17
New
Jan 24
First Quarter
Jan 31
Full
Feb 8
Last Quarter

Hourly Weather History & Observations

Time (EST) Temp. Windchill Dew Point Humidity Pressure Visibility Wind Dir Wind Speed Gust Speed Precip Events Conditions
12:53 AM 12.0 °F -6.9 °F 6.1 °F 77% 30.11 in 7.0 mi WSW 21.9 mph - 0.00 in   Overcast
1:03 AM 10.4 °F -9.5 °F 5.0 °F 79% 30.07 in 9.0 mi WSW 23.0 mph - N/A   Overcast
1:38 AM 10.4 °F -9.5 °F 5.0 °F 79% 30.08 in 7.0 mi WSW 23.0 mph - N/A   Overcast
1:53 AM 10.0 °F -10.4 °F 3.9 °F 76% 30.13 in 9.0 mi WSW 24.2 mph - N/A   Overcast
2:22 AM 10.4 °F -9.5 °F 5.0 °F 79% 30.11 in 2.5 mi WSW 23.0 mph - 0.00 in Snow Light Snow
2:34 AM 8.6 °F -11.4 °F 5.0 °F 85% 30.11 in 1.5 mi WSW 21.9 mph - 0.00 in Snow Light Snow
2:53 AM 9.0 °F -11.4 °F 5.0 °F 84% 30.16 in 1.5 mi WSW 23.0 mph - 0.00 in Snow Light Snow
3:44 AM 8.6 °F -11.4 °F 3.2 °F 79% 30.15 in 2.0 mi WSW 21.9 mph - 0.00 in Snow Light Snow
3:53 AM 7.0 °F -12.6 °F 3.0 °F 84% 30.18 in 2.0 mi WSW 19.6 mph - 0.00 in Snow Light Snow
4:20 AM 6.8 °F -12.9 °F 1.4 °F 79% 30.15 in 3.0 mi WSW 19.6 mph - 0.00 in Snow Light Snow
4:53 AM 6.1 °F -13.3 °F 1.0 °F 80% 30.20 in 8.0 mi SW 18.4 mph - 0.00 in   Overcast
5:53 AM 3.9 °F -14.3 °F -0.9 °F 80% 30.23 in 10.0 mi SW 15.0 mph - N/A   Mostly Cloudy
6:15 AM 3.2 °F -14.6 °F -2.2 °F 78% 30.20 in 10.0 mi SW 13.8 mph - N/A   Scattered Clouds
6:53 AM 1.9 °F -16.9 °F -4.0 °F 76% 30.26 in 10.0 mi SW 15.0 mph - N/A   Clear
7:53 AM 1.9 °F -15.5 °F -4.0 °F 76% 30.27 in 10.0 mi SW 12.7 mph - N/A   Clear
8:53 AM 1.9 °F -16.2 °F -4.0 °F 76% 30.27 in 10.0 mi SW 13.8 mph - N/A   Clear
9:53 AM 3.0 °F -15.5 °F -4.0 °F 73% 30.30 in 10.0 mi SW 15.0 mph - N/A   Partly Cloudy
10:53 AM 5.0 °F -10.8 °F -2.0 °F 73% 30.28 in 10.0 mi SSW 11.5 mph - N/A   Clear
12:53 PM 9.0 °F -5.9 °F 1.0 °F 70% 30.21 in 6.0 mi SSW 11.5 mph - N/A   Haze
1:53 PM 9.0 °F -5.1 °F 1.9 °F 73% 30.17 in 2.0 mi South 10.4 mph - 0.00 in Snow Light Snow
2:04 PM 8.6 °F -7.7 °F 1.4 °F 73% 30.13 in 1.5 mi South 13.8 mph 19.6 mph 0.00 in Snow Light Snow
2:18 PM 8.6 °F -6.3 °F 3.2 °F 79% 30.12 in 1.2 mi South 11.5 mph - 0.00 in Snow Light Snow
2:53 PM 10.0 °F -3.7 °F 3.9 °F 76% 30.12 in 1.2 mi SSE 10.4 mph 19.6 mph 0.00 in Snow Light Snow
3:44 PM 10.4 °F -2.4 °F 5.0 °F 79% 30.05 in 1.0 mi South 9.2 mph - 0.00 in Snow Light Snow
3:53 PM 10.0 °F -5.2 °F 5.0 °F 80% 30.08 in 1.0 mi SSE 12.7 mph - 0.00 in Snow Light Snow
4:00 PM 10.4 °F -3.3 °F 5.0 °F 79% 30.04 in 0.8 mi South 10.4 mph - 0.00 in Snow Light Snow
4:24 PM 10.4 °F -4.1 °F 6.8 °F 85% 30.02 in 0.8 mi SSE 11.5 mph - 0.00 in Snow Light Snow
4:31 PM 10.4 °F -3.3 °F 6.8 °F 85% 30.01 in 0.8 mi SSE 10.4 mph - 0.00 in Snow Light Snow
4:53 PM 10.9 °F -4.1 °F 7.0 °F 84% 30.02 in 0.8 mi SSE 12.7 mph 18.4 mph 0.00 in Snow Light Snow
5:16 PM 12.2 °F -3.7 °F 6.8 °F 79% 29.95 in 1.2 mi SSE 15.0 mph 21.9 mph 0.00 in Snow Light Snow
5:53 PM 12.9 °F -3.4 °F 8.1 °F 81% 29.94 in 1.2 mi SSE 16.1 mph 23.0 mph 0.00 in Snow Light Snow
6:05 PM 12.2 °F -4.3 °F 8.6 °F 85% 29.88 in 2.0 mi SSE 16.1 mph 26.5 mph 0.00 in Snow Light Snow
6:19 PM 14.0 °F -2.5 °F 8.6 °F 79% 29.87 in 1.5 mi South 17.3 mph 26.5 mph 0.00 in Snow Light Snow
6:53 PM 15.1 °F -1.1 °F 12.0 °F 88% 29.89 in 0.8 mi SSE 17.3 mph 24.2 mph 0.00 in Snow Light Snow
7:07 PM 15.8 °F -0.2 °F 12.2 °F 86% 29.85 in 1.5 mi SSE 17.3 mph 24.2 mph 0.00 in Snow Light Snow
7:18 PM 15.8 °F -0.6 °F 12.2 °F 86% 29.84 in 2.0 mi South 18.4 mph 26.5 mph 0.00 in Snow Light Snow
7:21 PM 17.6 °F 1.7 °F 12.2 °F 79% 29.84 in 3.0 mi SSE 18.4 mph 25.3 mph 0.00 in Snow Light Snow
7:35 PM 17.6 °F 1.7 °F 12.2 °F 79% 29.82 in 10.0 mi South 18.4 mph - 0.00 in   Overcast
7:53 PM 19.0 °F 3.6 °F 14.0 °F 81% 29.84 in 10.0 mi South 18.4 mph 27.6 mph 0.00 in   Overcast
8:53 PM 21.9 °F 6.2 °F 17.1 °F 82% 29.78 in 5.0 mi SSE 21.9 mph 29.9 mph N/A   Haze
9:53 PM 24.1 °F 13.1 °F 18.0 °F 77% 29.76 in 10.0 mi South 11.5 mph - N/A   Overcast
10:53 PM 28.9 °F 16.1 °F 24.1 °F 82% 29.74 in 6.0 mi South 19.6 mph 29.9 mph 0.00 in Snow Light Snow
11:53 PM 30.9 °F 19.8 °F 24.1 °F 76% 29.73 in 10.0 mi South 16.1 mph - 0.00 in   Overcast